Location: ČR
(50.0000°N, 15.0000°E)
Time: 15:11:12
(UTC+00:00)

Explorer 7 - Pass Details

Date: 22 October 2021
Orbit: 483 x 675 km, 50.3° (Epoch: 27 November)

Event Time Altitude Azimuth Distance (km) Brightness Sun altitude
Rises 23:59:25 0° 272° (W) 2,787 - -48.1°
Reaches altitude 10° 00:01:37 10° 273° (W) 1,920 - -47.9°
Maximum altitude 00:06:03 85° 0° (N) 625 - -47.6°
Drops below altitude 10° 00:10:45 10° 91° (E) 2,036 - -47.2°
Sets 00:13:09 0° 92° (E) 2,970 - -47.0°
